Other Public Products
Issued by NWS Grand Forks, ND

Home | Current Version | Previous Version | Text Only | Print | Product List | Glossary Off
Versions: 1 2 3 4 5 6 7 8 9 10 11 12 13 14 15 16 17 18 19 20 21 22 23 24 25 26 27 28 29 30 31 32 33 34 35 36 37 38 39 40 41 42 43 44 45 46 47 48 49 50

000
FPUS83 KFGF 271210
OPUFGF
PRAIRIE TO PINES WEATHER ROUNDUP
NATIONAL WEATHER SERVICE EASTERN NORTH DAKOTA/GRAND FORKS ND
700 AM CDT THU JUL 27 2017

 **SATELLITE DATA USED TO AUGMENT SKY COVER AT AUTOMATED STATIONS**
 *****  WEATHER ACROSS EASTERN NORTH DAKOTA  *****

CITY           SKY/WX    TMP DP  RH WIND       PRES   REMARKS
GRAND FORKS    FAIR      58  57  97 CALM      30.11S
6HR MIN TEMP:  55; 6HR MAX TEMP:  62;

GRAND FORKS AF FAIR      56  55  98 CALM      30.12S
GRAND CITY NWS NOT AVBL
BUXTON         NOT AVBL
DEVILS LAKE    FAIR      63  60  90 SW5       30.17R
6HR MIN TEMP:  54; 6HR MAX TEMP:  63;

FARGO          FAIR      58  56  93 NW5       30.12S
6HR MIN TEMP:  54; 6HR MAX TEMP:  62;

WAHPETON ARPT  FAIR      59  55  88 NW3       30.12R
$$

 *****  WEATHER ACROSS CENTRAL AND WESTERN NORTH DAKOTA  *****

CITY           SKY/WX    TMP DP  RH WIND       PRES   REMARKS
JAMESTOWN      FAIR      56  54  93 CALM      30.15R
6HR MIN TEMP:  54; 6HR MAX TEMP:  61;

BISMARCK       CLOUDY    67  58  72 N10       30.19R
6HR MIN TEMP:  62; 6HR MAX TEMP:  67;

MINOT          FAIR      69  58  67 S13G21    30.11F
6HR MIN TEMP:  66; 6HR MAX TEMP:  70; 6HR PCP:  0.01;

MINOT AFB      FAIR      63  57  83 SE6       30.10F
6HR MIN TEMP:  61; 6HR MAX TEMP:  65;

GARRISON         N/A     62  62 100 E7        30.17F
6HR MIN TEMP:  62; 6HR MAX TEMP:  68; 6HR PCP:  0.51;

WILLISTON      LGT RAIN  69  58  67 SE16      30.10S
6HR MIN TEMP:  66; 6HR MAX TEMP:  75; 6HR PCP:  0.13;

DICKINSON      FAIR      60  55  83 NE14      30.11R
6HR MIN TEMP:  60; 6HR MAX TEMP:  63;

HETTINGER      FAIR      59  52  77 E7        30.13R
6HR MIN TEMP:  59; 6HR MAX TEMP:  70;

$$

 *****  OTHER OBSERVATIONS NORTHEAST NORTH DAKOTA  *****

CITY           SKY/WX    TMP DP  RH WIND       PRES   REMARKS
WALHALLA       NOT AVBL
LANGDON        FAIR      55  55 100 CALM      30.16R
CAVALIER       FAIR      61  57  88 W3        30.11R
GRAFTON        FAIR      59  59 100 SW3       30.13S
CANDO          NOT AVBL
FORT TOTTEN      N/A     62  57  83 CALM      29.95S
ROLLA            N/A     59  59 100 SW3       30.17S
RUGBY          NOT AVBL
 ***** THE ABOVE OBSERVATIONS ARE NON NWS ARE NOT QUALITY
        CONTROLLED AND MAY MIS-REPORT RAIN FOR SNOW...
$$

 *****  OTHER OBSERVATIONS SOUTHEAST NORTH DAKOTA *****

CITY           SKY/WX    TMP DP  RH WIND       PRES   REMARKS
COOPERSTOWN    FAIR      55  55 100 CALM      30.17R FOG
VALLEY CITY    FAIR      54  54 100 CALM      30.17R FOG
OAKES          NOT AVBL
GWINNER        SUNNY     59  57  94 CALM      30.14R
SHEYENNE NWR     N/A     58  58 100 CALM      29.95S
BUFFALO        NOT AVBL
WYNDMERE       NOT AVBL
 ***** THE ABOVE OBSERVATIONS ARE NON NWS ARE NOT QUALITY
       CONTROLLED AND MAY MIS-REPORT RAIN FOR SNOW...
$$

  *****  WEATHER ACROSS NORTHERN MINNESOTA  *****

CITY           SKY/WX    TMP DP  RH WIND       PRES   REMARKS
FLAG ISLAND    FAIR      64  63  94 CALM      30.09S
WARROAD        FAIR      57  55  94 CALM      30.12S FOG
ROSEAU         FAIR      61  54  77 CALM      30.11S
HALLOCK        FAIR      55  54  94 S3        30.11R FOG
THF RVR FALLS  FAIR      57  55  93 CALM      30.13R
6HR MIN TEMP:  56; 6HR MAX TEMP:  65;

HALSTAD        NOT AVBL
FOSSTON        MOCLDY    55  54  94 CALM      30.13S FOG
BAUDETTE       FAIR      58  58 100 W5        30.10S
6HR MIN TEMP:  54; 6HR MAX TEMP:  62;

WASKISH        FAIR      57  55  94 CALM      30.11S
CROOKSTON      FAIR      57  55  94 CALM      30.13R
$$
  *****  WEATHER ACROSS CENTRAL AND WEST MINNESOTA  *****

CITY           SKY/WX    TMP DP  RH WIND       PRES   REMARKS
BEMIDJI        FAIR      56  55  96 CALM      30.12S
PARK RAPIDS    FAIR      62  59  90 N3        30.12S
6HR MIN TEMP:  57; 6HR MAX TEMP:  62;

WADENA         FAIR      57  57 100 CALM      30.11S
DETROIT LAKES  FAIR      63  59  88 CALM      30.13F
MOORHEAD       FAIR      55  55 100 CALM      30.13S FOG
FERGUS FALLS   FAIR      63  61  94 CALM      30.11R
ELBOW LAKE     FOG       65  63  93 CALM      30.12R VSB 3/4
MORRIS MN      FAIR      61  57  88 CALM      30.10S
STAPLES        FAIR      57  57 100 N3        30.11S
WHEATON        FAIR      59  57  94 CALM      30.13S
$$
  *****  WEATHER ELSEWHERE ACROSS MINNESOTA  *****

CITY           SKY/WX    TMP DP  RH WIND       PRES   REMARKS
DULUTH         FAIR      62  60  93 N6        30.09S
6HR MIN TEMP:  58; 6HR MAX TEMP:  63;

INTRNTL FALLS  FOG       56  54  93 CALM      30.10S VSB 1
6HR MIN TEMP:  48; 6HR MAX TEMP:  56;

ELY            FAIR      55  54  94 CALM      30.10S
CLOQUET        FAIR      61  55  82 N3        30.09S
BRAINERD       FAIR      59  58  96 CALM      30.10S
6HR MIN TEMP:  55; 6HR MAX TEMP:  63;

HIBBING        FAIR      53  53 100 CALM      30.10R
6HR MIN TEMP:  49; 6HR MAX TEMP:  54;

ALEXANDRIA     FAIR      65  60  84 NE6       30.12S
6HR MIN TEMP:  61; 6HR MAX TEMP:  68;

SAINT CLOUD    FAIR      63  61  93 CALM      30.08S
6HR MIN TEMP:  60; 6HR MAX TEMP:  65;

MINNEAPOLIS    FAIR      68  60  75 N6        30.06R
6HR MIN TEMP:  66; 6HR MAX TEMP:  70;

$$

  *****  WEATHER ACROSS SOUTH DAKOTA  *****

CITY           SKY/WX    TMP DP  RH WIND       PRES   REMARKS
SIOUX FALLS    FAIR      61  60  97 CALM      30.11R
6HR MIN TEMP:  58; 6HR MAX TEMP:  67;

BROOKINGS      FAIR      60  58  92 CALM      30.13R
WATERTOWN      FAIR      58  56  93 CALM      30.13R
6HR MIN TEMP:  56; 6HR MAX TEMP:  63;

HURON          FAIR      58  58 100 W5        30.13R
6HR MIN TEMP:  57; 6HR MAX TEMP:  63;

SISSETON         N/A     58  56  93 NW6       30.12R
ABERDEEN       FAIR      59  58  96 NW5       30.15R
6HR MIN TEMP:  57; 6HR MAX TEMP:  65;

MITCHELL       FAIR      61  61 100 W3        30.13R FOG
PIERRE         FAIR      59  54  83 E3        30.13R
6HR MIN TEMP:  58; 6HR MAX TEMP:  67;

MOBRIDGE       FAIR      64  58  80 E7        30.12R
RAPID CITY     MOCLDY    67  58  72 SE6       30.16S
6HR MIN TEMP:  64; 6HR MAX TEMP:  69;

$$

  *****  SOME WEATHER IN NEARBY STATES *****

CITY           SKY/WX    TMP DP  RH WIND       PRES   REMARKS
GLASGOW MT     FAIR      68  49  50 E20       29.98R
6HR MIN TEMP:  68; 6HR MAX TEMP:  78;

GREAT FALLS MT FAIR      67  43  41 SW9       30.03R
6HR MIN TEMP:  63; 6HR MAX TEMP:  75;

CHEYENNE WY    FAIR      59  56  89 CALM      30.28R
6HR MIN TEMP:  59; 6HR MAX TEMP:  66;

SCOTTSBLUFF NE CLOUDY    67  64  90 E9        30.19S
6HR MIN TEMP:  67; 6HR MAX TEMP:  69; 6HR PCP:  0.19;

OMAHA NE       FAIR      67  64  90 N7        30.05R
6HR MIN TEMP:  67; 6HR MAX TEMP:  72;

DES MOINES IA  FAIR      72  69  90 N8        29.99R
6HR MIN TEMP:  71; 6HR MAX TEMP:  73;

DAVENPORT IA   CLOUDY    70  69  97 NE9       29.97R
6HR MIN TEMP:  70; 6HR MAX TEMP:  72;

CHICAGO IL     PTSUNNY   74  69  85 N8        29.93F HAZE
6HR MIN TEMP:  73; 6HR MAX TEMP:  76; 6HR PCP: TRACE;

EAU CLAIRE WI  FAIR      64  62  93 CALM      30.04R
6HR MIN TEMP:  58; 6HR MAX TEMP:  64;

LA CROSSE WI   FAIR      69  66  90 N6        30.02R
6HR MIN TEMP:  66; 6HR MAX TEMP:  72;

$$

  *****  SOME NATIONAL WEATHER *****

CITY           SKY/WX    TMP DP  RH WIND       PRES   REMARKS
LA GUARDIA NY  PTSUNNY   70  62  76 SW7       30.05S
6HR MIN TEMP:  67; 6HR MAX TEMP:  70;



USA.gov is the U.S. government's official web portal to all federal, state and local government web resources and services.